Vorticity
37 38 33 25 15 7 4 5 5 5 5 5 4 5 6 5 5 3 3 4 5 6 7 8 8 6 3 2 2 3 3 3 4 3 2 2 2 2 4 5 5 4 2 2 2 4 5 3 -0 1 3 4 4 3 3 4 3 4 4 3 7 1 -14 -6 8 5 6 12 12 15 17 17 20 21
34 37 39 38 32 23 13 7 5 5 5 5 5 5 5 5 5 4 3 3 4 5 6 7 9 10 8 5 2 3 4 4 5 6 5 4 3 3 3 4 5 5 5 4 2 2 4 6 4 1 0 1 3 4 2 3 3 3 5 2 5 6 -7 -11 -4 -4 -1 7 7 9 14 13 13 15
38 37 38 39 40 37 31 22 13 7 5 5 5 4 5 5 5 4 3 3 3 4 6 7 8 10 11 11 7 4 3 4 4 5 5 5 3 3 3 3 4 5 6 7 6 5 2 4 7 6 3 1 1 3 3 3 3 3 5 3 2 6 4 3 4 -7 -12 -2 4 3 5 5 7 12
47 44 41 41 41 40 41 38 30 21 13 8 5 4 4 4 5 6 5 3 2 2 4 5 6 6 7 11 12 9 6 4 4 4 4 4 3 3 2 2 3 3 4 5 6 8 6 4 5 7 8 5 1 1 2 2 3 2 4 4 3 4 5 7 10 -1 -15 -15 -10 -2 8 10 9 14
54 53 49 46 45 44 44 44 43 38 30 22 14 9 6 4 4 6 6 5 3 2 2 2 4 5 5 5 8 11 10 7 6 5 5 5 4 4 3 2 2 2 2 3 2 5 6 6 5 5 8 10 7 4 1 1 3 3 3 4 3 4 4 5 8 7 0 -10 -20 -14 -0 5 9 11
43 52 55 53 50 48 46 46 47 47 44 39 32 24 17 11 7 4 5 7 7 5 4 2 1 2 4 5 5 7 10 10 9 8 6 6 5 5 5 3 3 3 3 3 2 1 3 4 4 3 4 7 9 9 5 2 3 4 5 5 4 3 3 4 6 6 4 -1 -9 -11 -13 -11 7 16
20 30 41 49 52 53 51 49 49 49 49 48 45 41 35 28 20 13 8 6 6 6 6 5 5 3 1 3 4 4 6 8 9 10 8 8 7 7 7 6 5 4 4 4 3 2 2 3 3 3 1 2 5 8 9 6 3 3 4 5 5 5 3 2 4 6 5 3 2 5 -5 -20 -10 10
11 13 18 26 39 49 52 52 52 52 51 50 49 47 46 43 38 33 26 19 12 7 4 4 6 6 4 3 3 2 3 4 5 8 9 9 8 7 8 8 8 7 5 5 4 3 3 2 3 4 3 2 2 3 6 7 6 4 3 4 4 6 6 4 3 3 5 6 3 7 9 -7 -19 -7
12 13 11 11 16 25 34 40 46 51 52 53 51 49 48 47 45 42 41 38 32 22 14 7 4 5 4 4 4 4 4 4 4 4 5 8 9 8 8 7 8 8 7 7 6 5 4 3 3 4 4 4 3 3 4 5 7 5 4 4 4 4 5 5 6 4 3 6 5 4 10 6 -9 -15
12 14 14 13 11 11 14 20 28 37 44 50 53 52 51 51 49 46 45 45 44 40 33 24 16 14 10 7 6 4 3 4 5 4 4 4 6 6 7 7 6 6 7 7 7 7 7 6 5 5 5 6 5 4 3 3 5 6 5 4 3 3 5 4 5 6 4 4 5 5 6 6 -3 -12
12 12 13 14 13 12 11 10 13 18 26 35 43 47 48 49 50 51 50 50 51 50 48 41 32 28 26 20 14 10 7 5 4 4 4 4 5 5 6 5 5 5 5 5 5 6 6 7 7 7 6 7 7 6 5 4 4 5 5 5 4 2 3 4 4 6 7 5 4 5 6 6 3 -1
13 13 13 13 13 13 12 11 11 11 13 18 26 33 39 43 45 46 48 50 52 53 53 51 44 38 37 35 28 22 21 18 13 8 6 4 4 5 6 7 6 5 5 5 4 5 5 4 5 6 6 7 8 8 7 6 6 6 6 5 6 4 2 3 4 4 6 6 5 5 5 7 6 4
14 14 15 15 14 14 13 13 13 12 11 11 11 15 22 30 34 37 40 43 47 51 53 55 52 46 42 44 41 33 29 29 26 21 18 15 10 6 6 7 6 5 5 5 5 5 6 5 4 4 4 5 6 7 7 7 7 7 7 6 6 6 4 3 4 4 6 6 6 6 6 7 7 4
13 15 16 16 16 15 14 13 12 12 12 12 10 10 12 16 20 23 27 31 35 40 44 48 51 50 47 49 51 45 37 37 37 31 26 26 23 17 14 11 9 7 6 5 5 5 5 5 5 5 5 4 4 5 6 7 7 7 7 7 7 7 6 4 4 4 5 6 6 6 5 6 8 7
10 12 13 13 14 15 16 16 15 13 12 13 12 11 12 13 14 15 18 22 26 29 32 35 38 42 44 46 49 49 45 45 47 44 38 36 34 29 26 24 19 15 13 10 8 6 5 5 5 5 5 4 4 4 5 6 7 7 7 7 7 7 6 6 6 6 5 6 6 6 6 6 7 8
9 9 10 11 12 13 14 15 15 13 12 12 12 12 13 14 14 14 14 16 20 23 25 28 30 32 35 37 40 43 43 45 50 51 46 43 41 35 32 32 31 28 26 24 20 13 8 6 5 5 5 4 4 4 3 3 4 6 7 7 8 8 7 6 6 7 7 6 6 6 6 6 6 8
8 8 8 9 10 10 11 13 14 13 13 13 12 12 12 13 13 14 14 13 14 16 19 25 31 32 33 34 35 36 35 34 42 52 51 45 43 42 39 36 34 33 32 32 32 27 19 13 9 7 4 4 4 4 3 3 2 3 4 5 6 7 8 8 7 7 7 8 8 8 7 7 6 6
14 12 11 9 9 8 8 8 9 10 10 12 14 13 13 12 11 11 13 13 13 14 15 18 24 28 32 31 27 28 28 17 16 33 45 45 43 43 44 41 38 35 33 34 36 36 33 29 25 20 14 9 8 6 4 5 4 3 3 3 4 5 6 7 7 7 7 7 7 7 7 7 7 7
17 17 17 16 16 15 13 12 11 9 8 7 9 11 11 12 13 13 12 11 11 12 13 14 16 20 29 28 17 16 25 21 14 20 32 39 42 44 45 44 42 38 34 34 37 38 35 33 33 32 28 23 20 16 11 9 8 6 5 4 3 3 4 5 6 6 6 7 7 7 7 7 7 6
7 8 10 10 11 12 12 14 14 14 14 12 10 9 9 9 11 12 13 11 10 10 10 11 12 14 22 27 16 7 13 20 20 19 21 26 31 39 46 47 44 46 44 38 38 40 38 34 32 33 31 28 27 26 23 20 17 14 12 9 6 4 2 3 4 4 4 4 4 6 6 6 8 9
4 4 4 4 4 5 5 6 6 8 10 12 13 13 12 12 11 10 10 12 12 12 12 11 11 10 14 21 19 9 8 12 12 9 12 16 13 17 34 40 36 44 52 48 44 45 41 38 37 36 34 31 28 28 27 26 25 24 23 20 16 12 8 5 4 4 4 4 3 4 6 5 5 5
5 4 5 5 5 6 5 5 5 5 5 5 7 9 9 12 13 9 9 11 11 12 13 12 10 9 10 15 18 14 13 15 13 5 5 11 8 6 18 23 15 17 29 37 45 50 46 42 42 41 39 36 33 32 30 29 28 27 28 27 25 22 18 13 10 7 5 5 4 3 4 6 7 5
7 7 8 8 8 8 7 7 7 7 8 7 7 7 6 7 8 6 9 14 14 12 14 14 13 11 9 10 13 15 16 18 19 10 3 9 13 7 8 13 8 3 9 18 32 45 47 44 44 45 44 40 37 36 35 33 32 30 29 29 27 26 25 21 18 15 11 8 8 7 5 3 4 6
9 10 11 12 12 12 12 11 10 8 9 9 9 10 9 7 4 4 7 10 10 12 14 14 15 14 13 11 10 11 13 16 20 17 11 16 20 12 6 8 7 3 3 6 14 26 36 40 40 40 44 42 37 35 34 33 32 33 32 31 29 26 25 24 21 18 16 13 9 8 9 8 5 3
11 11 11 12 13 13 14 14 14 12 12 11 11 10 10 8 6 7 8 7 6 8 11 12 15 16 15 14 13 11 10 11 14 16 17 19 22 19 13 10 8 6 2 -1 4 11 19 29 32 32 39 44 41 38 35 32 31 31 29 30 30 26 22 21 21 20 19 19 17 14 11 9 9 6
12 11 12 12 12 13 13 13 13 13 12 12 12 11 10 9 8 9 10 9 8 8 8 8 12 16 15 15 15 14 12 10 9 11 13 15 17 20 19 14 11 10 2 -4 1 7 11 17 21 22 28 37 42 44 41 36 32 31 30 28 27 27 26 21 17 16 14 12 12 14 15 13 11 9
14 14 14 13 13 12 12 12 12 12 12 12 11 10 10 10 9 10 11 11 11 11 10 8 8 11 15 16 15 15 14 14 13 11 11 12 12 15 20 19 14 9 1 -4 -2 3 10 14 12 12 17 21 30 40 44 42 37 33 34 33 27 26 29 26 21 20 23 26 24 15 10 12 13 11
14 15 15 14 13 12 12 12 12 12 12 12 12 11 11 12 13 13 13 13 11 10 9 10 10 9 10 14 16 15 13 14 17 17 16 16 14 15 20 22 21 14 3 -2 -2 0 8 14 10 8 12 14 15 22 31 37 38 35 34 37 36 32 30 30 33 27 19 29 42 32 15 10 12 11
10 12 13 14 13 13 12 12 12 13 13 13 13 13 14 15 15 14 12 10 11 10 8 9 9 9 8 10 14 16 14 12 12 15 17 19 18 19 20 22 29 30 13 -1 0 2 5 12 11 6 10 15 13 13 16 23 30 33 31 31 34 36 34 33 33 19 -1 1 19 26 21 16 13 11
8 8 10 12 12 12 13 13 12 13 12 13 15 15 16 16 13 11 12 12 15 18 18 15 12 10 9 8 9 12 14 14 12 11 14 17 17 21 24 21 29 42 28 4 -0 3 2 8 12 7 5 11 13 11 11 12 18 24 29 28 27 28 32 36 35 27 19 20 22 20 21 20 17 16
6 7 8 10 10 11 12 12 12 12 12 12 14 15 16 15 12 14 21 26 28 28 28 26 21 14 10 7 6 9 11 15 16 13 12 15 14 18 26 24 25 42 41 14 -2 1 2 6 12 8 1 3 9 13 12 9 9 11 15 22 26 23 22 29 35 37 37 35 33 31 26 19 17 20
4 6 8 10 10 10 10 10 10 12 11 11 11 13 14 12 11 20 32 38 38 34 30 29 27 22 17 12 7 6 8 12 17 16 13 15 15 14 20 21 20 34 47 30 4 -3 0 6 12 11 5 -0 2 10 14 12 10 9 7 9 17 21 20 19 22 28 29 26 29 34 26 14 13 16
3 4 7 10 10 9 9 8 9 10 11 11 9 11 14 10 9 24 40 41 36 33 29 28 28 25 23 19 10 5 7 9 14 17 14 13 14 14 17 22 19 25 41 42 19 -1 -3 5 9 8 7 2 -4 -1 7 11 11 12 11 6 5 10 18 19 16 16 16 16 22 32 26 14 14 17
3 4 6 9 11 11 10 10 9 8 10 13 10 9 13 10 8 24 42 39 32 33 29 25 28 26 23 21 14 6 6 9 12 16 16 13 13 13 14 19 20 19 29 42 37 14 -2 -2 3 3 4 5 -2 -9 -6 0 4 7 9 10 7 6 9 15 18 20 22 21 22 28 30 25 21 18
4 5 6 7 10 12 11 10 10 7 7 12 11 9 12 11 7 19 37 34 28 34 31 22 24 28 25 22 16 7 5 8 11 15 15 13 13 13 12 14 18 18 21 32 43 38 20 4 -0 0 2 6 9 5 -2 -5 -4 -3 -2 1 7 9 8 7 8 13 21 25 25 23 23 26 28 26
5 5 6 7 10 12 11 9 10 8 7 10 11 8 10 12 8 13 29 30 23 29 34 26 21 25 27 24 17 9 6 7 9 12 15 14 14 14 13 12 14 16 17 20 28 40 42 32 19 8 0 -2 3 10 11 8 4 1 -5 -8 -6 -0 4 6 6 6 9 15 23 26 24 20 20 21
5 5 5 6 9 12 11 9 9 9 7 8 11 9 8 12 10 10 22 30 24 23 31 34 27 25 27 25 16 8 5 6 7 10 12 14 14 15 15 14 13 14 17 17 17 21 31 40 43 40 30 19 12 9 9 10 11 12 10 5 0 -3 -2 -1 2 4 4 3 6 15 22 24 24 23
4 5 5 6 9 11 11 9 8 10 9 7 9 10 8 10 12 9 13 25 28 23 25 32 33 29 26 24 18 10 6 5 5 6 7 8 11 12 12 13 14 14 14 17 18 17 16 20 28 37 42 44 42 37 30 24 21 21 20 18 13 7 2 -2 -3 -0 3 3 2 3 7 15 22 27
3 4 4 6 9 11 11 9 8 9 10 8 9 10 9 9 11 11 9 15 25 27 23 25 29 30 26 22 17 12 8 7 6 5 4 4 6 8 8 9 12 13 13 14 16 18 18 16 16 17 21 25 31 36 39 40 40 38 36 34 31 25 17 10 4 -0 -3 -3 -1 1 3 5 8 14
2 3 3 5 10 12 11 10 9 9 10 10 8 9 9 8 9 11 10 9 15 24 26 24 23 23 22 20 17 12 8 8 9 8 6 5 4 4 5 5 6 7 9 10 11 12 14 16 18 18 18 17 16 17 20 24 29 34 37 38 39 39 36 30 25 19 13 6 2 0 1 2 2 4
4 3 3 5 10 14 12 10 9 8 9 10 9 8 8 8 8 10 12 10 9 14 21 26 25 21 18 16 16 14 11 9 8 8 7 8 7 6 5 5 6 5 5 6 7 8 9 9 11 12 14 16 16 17 17 17 17 20 23 26 29 32 35 36 34 33 31 28 24 20 15 10 8 6
8 4 3 4 9 14 14 10 8 8 8 10 10 8 7 8 8 8 10 12 11 10 11 18 24 26 23 19 15 14 13 12 11 10 9 7 6 7 6 5 6 6 6 6 5 6 6 6 6 6 7 8 8 9 11 12 13 13 15 17 19 21 25 28 30 31 31 31 31 32 30 27 25 22
14 9 5 4 8 13 15 12 9 8 8 8 9 9 9 9 8 8 8 9 11 11 9 10 14 20 25 27 25 20 17 15 13 12 11 9 8 7 7 7 6 5 6 7 7 7 7 7 7 7 7 7 7 6 6 6 7 8 8 8 8 9 11 12 14 17 19 21 22 24 25 26 26 27
16 15 9 5 6 11 14 14 11 9 8 8 8 8 10 10 8 8 8 8 9 10 10 10 10 12 15 20 25 27 26 24 21 17 14 12 10 8 7 7 7 6 5 5 5 6 6 7 7 7 7 7 7 7 7 6 6 6 7 8 9 10 9 9 9 9 9 10 12 14 15 17 17 18
14 17 15 8 5 9 13 15 14 11 8 7 7 8 9 10 9 8 8 8 8 8 9 9 10 11 11 11 14 17 21 24 26 26 24 22 20 19 17 15 13 13 13 12 13 14 15 15 16 16 16 16 15 14 13 13 13 13 13 14 16 17 19 19 20 19 18 17 17 18 18 18 19 19
Height
5311 5316 5321 5328 5336 5343 5348 5353 5359 5365 5371 5377 5383 5388 5394 5400 5407 5412 5416 5424 5434 5442 5444 5449 5457 5463 5469 5475 5479 5483 5488 5495 5501 5507 5514 5521 5527 5533 5538 5543 5549 5554 5559 5563 5568 5573 5577 5583 5589 5593 5598 5604 5611 5617 5622 5627 5631 5635 5640 5644 5649 5652 5655 5658 5663 5667 5669 5670 5673 5675 5678 5682 5685 5690
5299 5303 5309 5315 5322 5329 5333 5339 5345 5351 5357 5364 5371 5377 5382 5387 5392 5398 5403 5411 5423 5430 5433 5440 5448 5452 5456 5461 5467 5471 5477 5484 5490 5495 5502 5509 5516 5522 5527 5532 5538 5544 5549 5553 5559 5564 5568 5573 5577 5583 5589 5594 5600 5607 5613 5618 5622 5627 5631 5637 5641 5644 5647 5651 5655 5660 5663 5665 5667 5668 5670 5675 5679 5682
5289 5293 5297 5302 5309 5314 5319 5325 5331 5337 5343 5350 5357 5364 5369 5374 5379 5385 5390 5398 5412 5420 5422 5430 5438 5440 5443 5448 5453 5459 5465 5472 5477 5482 5489 5496 5502 5509 5515 5521 5528 5534 5539 5544 5549 5553 5558 5563 5567 5572 5579 5584 5590 5596 5602 5608 5613 5618 5623 5628 5633 5637 5640 5644 5648 5652 5655 5659 5662 5662 5664 5667 5671 5675
5282 5285 5287 5291 5296 5301 5305 5312 5317 5323 5329 5336 5343 5349 5355 5360 5366 5373 5376 5384 5401 5410 5410 5416 5424 5428 5431 5435 5439 5445 5453 5460 5465 5469 5475 5482 5488 5495 5502 5510 5517 5522 5528 5533 5538 5543 5547 5553 5557 5562 5568 5573 5580 5586 5592 5597 5602 5608 5613 5619 5624 5628 5632 5636 5640 5644 5648 5651 5655 5657 5658 5660 5664 5668
5277 5278 5280 5282 5285 5289 5294 5299 5304 5309 5316 5322 5329 5335 5341 5347 5354 5360 5363 5371 5388 5398 5397 5402 5412 5417 5420 5424 5428 5433 5439 5446 5452 5456 5462 5468 5474 5481 5489 5497 5504 5511 5517 5523 5528 5532 5536 5542 5547 5553 5558 5563 5569 5575 5581 5587 5592 5598 5604 5609 5614 5619 5624 5628 5632 5636 5640 5644 5647 5650 5653 5655 5657 5661
5273 5274 5275 5276 5278 5280 5284 5288 5292 5297 5303 5308 5315 5321 5326 5333 5340 5346 5351 5358 5371 5382 5384 5389 5400 5407 5408 5412 5419 5423 5426 5433 5437 5441 5448 5455 5461 5469 5476 5484 5491 5498 5505 5511 5516 5521 5525 5530 5536 5542 5548 5553 5558 5564 5570 5577 5583 5588 5593 5599 5604 5609 5614 5619 5624 5629 5633 5636 5638 5642 5647 5650 5652 5654
5271 5271 5272 5272 5273 5274 5277 5280 5283 5287 5292 5296 5302 5308 5312 5319 5326 5332 5338 5344 5354 5365 5372 5379 5389 5396 5398 5400 5407 5411 5414 5420 5424 5426 5433 5441 5448 5456 5464 5470 5478 5485 5491 5498 5504 5510 5514 5519 5525 5531 5537 5544 5549 5554 5559 5566 5572 5577 5582 5588 5594 5599 5604 5609 5615 5620 5624 5628 5630 5634 5639 5643 5645 5648
5270 5270 5270 5270 5270 5271 5272 5274 5276 5278 5282 5285 5290 5295 5299 5305 5312 5318 5322 5328 5337 5347 5357 5367 5375 5381 5383 5385 5392 5398 5401 5407 5412 5415 5420 5426 5433 5442 5451 5457 5465 5472 5478 5485 5491 5497 5503 5508 5513 5519 5526 5533 5539 5544 5549 5555 5561 5567 5572 5578 5584 5589 5594 5599 5605 5610 5615 5620 5623 5626 5630 5634 5638 5641
5269 5269 5269 5269 5269 5269 5270 5270 5271 5273 5275 5278 5281 5285 5288 5293 5299 5303 5307 5313 5321 5330 5340 5352 5360 5363 5366 5371 5378 5386 5388 5392 5399 5403 5407 5413 5419 5427 5436 5444 5452 5459 5466 5472 5478 5484 5490 5496 5502 5508 5514 5521 5528 5534 5539 5544 5550 5556 5562 5568 5573 5579 5584 5589 5595 5600 5605 5611 5615 5617 5621 5627 5630 5634
5268 5268 5268 5268 5268 5268 5268 5269 5269 5270 5271 5272 5275 5277 5280 5283 5287 5291 5295 5300 5306 5314 5324 5336 5343 5346 5350 5356 5363 5370 5374 5377 5383 5388 5394 5400 5407 5414 5422 5430 5439 5447 5453 5459 5465 5471 5477 5483 5490 5496 5502 5508 5515 5522 5529 5534 5539 5545 5551 5557 5563 5568 5574 5579 5585 5590 5595 5601 5606 5609 5613 5618 5622 5625
5268 5267 5267 5267 5267 5267 5267 5268 5268 5268 5269 5269 5271 5272 5274 5276 5279 5282 5286 5289 5294 5301 5310 5319 5325 5328 5333 5339 5347 5355 5359 5361 5366 5372 5379 5388 5397 5404 5411 5418 5426 5433 5439 5444 5450 5456 5462 5469 5476 5483 5489 5495 5502 5510 5517 5523 5529 5534 5540 5546 5552 5558 5564 5569 5575 5580 5585 5590 5595 5600 5604 5608 5613 5616
5268 5267 5267 5266 5266 5266 5266 5266 5267 5267 5267 5268 5268 5269 5270 5272 5274 5276 5278 5281 5285 5291 5297 5304 5310 5313 5317 5323 5331 5339 5343 5345 5352 5361 5368 5376 5386 5393 5398 5405 5411 5416 5421 5427 5434 5441 5448 5456 5463 5470 5477 5484 5490 5497 5504 5511 5518 5523 5529 5535 5541 5548 5553 5559 5564 5569 5574 5580 5585 5590 5594 5599 5603 5607
5267 5267 5266 5266 5265 5265 5265 5265 5266 5266 5266 5267 5267 5267 5268 5269 5270 5272 5273 5276 5279 5282 5287 5292 5297 5300 5303 5309 5317 5323 5326 5329 5338 5347 5352 5359 5369 5376 5380 5387 5394 5399 5405 5411 5418 5426 5434 5442 5450 5457 5464 5472 5479 5485 5491 5498 5506 5512 5518 5524 5530 5536 5542 5548 5554 5559 5563 5569 5574 5579 5584 5589 5593 5598
5267 5266 5266 5266 5265 5265 5264 5264 5264 5265 5265 5265 5265 5266 5266 5267 5268 5269 5270 5272 5274 5276 5279 5283 5286 5289 5294 5299 5303 5308 5312 5316 5322 5330 5333 5340 5350 5357 5361 5369 5379 5386 5392 5398 5404 5412 5420 5427 5434 5442 5450 5460 5467 5473 5479 5486 5493 5500 5506 5512 5518 5524 5530 5536 5542 5548 5553 5557 5563 5569 5574 5579 5583 5587
5266 5266 5265 5265 5264 5264 5264 5263 5263 5264 5264 5264 5264 5265 5265 5266 5266 5267 5268 5269 5270 5272 5274 5276 5278 5282 5286 5289 5292 5297 5301 5304 5309 5315 5319 5324 5333 5338 5342 5352 5364 5372 5379 5384 5389 5397 5404 5409 5417 5426 5436 5446 5454 5460 5468 5475 5481 5488 5494 5499 5505 5511 5517 5523 5529 5536 5542 5547 5552 5557 5563 5568 5572 5577
5266 5265 5265 5264 5264 5264 5263 5263 5263 5263 5263 5263 5264 5264 5264 5265 5265 5266 5267 5267 5268 5269 5271 5272 5274 5276 5279 5281 5285 5289 5292 5294 5298 5303 5307 5311 5317 5322 5328 5338 5349 5357 5361 5365 5370 5380 5388 5393 5399 5410 5421 5431 5440 5447 5456 5463 5468 5474 5480 5486 5492 5499 5505 5511 5517 5524 5530 5536 5541 5546 5552 5557 5562 5566
5266 5265 5265 5264 5264 5263 5263 5263 5263 5262 5262 5262 5263 5263 5263 5263 5264 5264 5265 5266 5266 5267 5268 5269 5270 5272 5274 5276 5279 5282 5284 5287 5290 5293 5296 5300 5305 5310 5317 5325 5333 5338 5342 5345 5351 5362 5372 5378 5383 5394 5407 5417 5425 5433 5442 5449 5454 5461 5467 5473 5480 5487 5494 5500 5506 5512 5518 5524 5530 5535 5540 5546 5551 5555
5266 5265 5264 5264 5264 5263 5263 5262 5262 5262 5261 5261 5261 5262 5262 5262 5262 5263 5263 5264 5264 5265 5266 5267 5267 5268 5270 5272 5274 5277 5279 5282 5284 5285 5289 5292 5296 5301 5307 5313 5318 5322 5327 5331 5337 5346 5358 5363 5368 5379 5393 5401 5408 5417 5426 5434 5440 5447 5453 5460 5468 5475 5481 5488 5494 5500 5506 5512 5518 5523 5529 5534 5540 5545
5266 5265 5265 5264 5264 5263 5263 5262 5262 5261 5261 5260 5260 5260 5260 5260 5260 5261 5262 5262 5262 5263 5263 5264 5265 5265 5267 5268 5270 5273 5276 5278 5280 5281 5283 5286 5289 5294 5298 5303 5308 5312 5316 5320 5324 5332 5343 5348 5353 5364 5377 5384 5391 5400 5409 5417 5425 5432 5439 5447 5455 5462 5468 5475 5482 5488 5493 5499 5505 5511 5516 5522 5528 5533
5267 5266 5265 5265 5264 5263 5262 5262 5261 5260 5260 5260 5259 5259 5259 5259 5259 5259 5259 5259 5260 5260 5261 5262 5263 5263 5264 5266 5267 5270 5272 5274 5276 5278 5279 5282 5285 5289 5292 5296 5301 5304 5308 5311 5314 5320 5329 5334 5339 5349 5359 5366 5374 5383 5392 5400 5409 5417 5424 5432 5440 5448 5455 5462 5469 5475 5481 5487 5493 5498 5504 5510 5516 5521
5267 5266 5265 5264 5264 5263 5262 5261 5260 5260 5259 5259 5258 5258 5258 5257 5257 5257 5257 5257 5257 5258 5258 5259 5260 5261 5262 5263 5265 5267 5268 5270 5273 5274 5276 5279 5282 5285 5288 5291 5296 5299 5301 5303 5305 5310 5317 5322 5327 5336 5344 5351 5359 5367 5375 5384 5392 5401 5409 5416 5424 5432 5441 5449 5456 5462 5468 5474 5480 5487 5492 5498 5504 5509
5266 5265 5265 5264 5263 5262 5261 5260 5260 5259 5258 5258 5257 5257 5256 5256 5256 5255 5254 5255 5255 5255 5256 5256 5257 5258 5259 5260 5262 5263 5265 5267 5270 5272 5274 5276 5279 5282 5285 5288 5292 5295 5297 5298 5299 5303 5309 5313 5317 5324 5331 5338 5345 5353 5361 5369 5376 5385 5392 5400 5408 5416 5425 5434 5441 5448 5455 5462 5468 5475 5481 5486 5492 5497
5265 5264 5263 5262 5261 5260 5260 5259 5258 5257 5257 5256 5256 5256 5255 5254 5254 5253 5253 5253 5253 5253 5253 5254 5254 5255 5256 5257 5259 5260 5262 5264 5267 5269 5271 5273 5276 5279 5281 5284 5288 5291 5293 5294 5295 5298 5302 5306 5309 5314 5320 5326 5334 5341 5348 5355 5362 5370 5378 5385 5393 5401 5410 5419 5427 5433 5441 5448 5455 5462 5468 5474 5479 5484
5264 5263 5262 5261 5260 5259 5258 5257 5256 5256 5255 5254 5254 5253 5253 5252 5251 5251 5251 5251 5251 5251 5251 5251 5252 5252 5253 5254 5255 5257 5259 5261 5263 5266 5268 5270 5273 5275 5278 5281 5284 5287 5289 5291 5293 5295 5298 5300 5303 5306 5310 5316 5323 5329 5336 5343 5350 5358 5365 5372 5379 5387 5395 5404 5412 5419 5427 5434 5441 5448 5455 5461 5466 5471
5262 5261 5260 5259 5258 5257 5256 5255 5254 5254 5253 5252 5252 5251 5250 5250 5249 5249 5249 5248 5248 5248 5249 5249 5249 5250 5250 5251 5252 5254 5256 5257 5260 5262 5264 5267 5269 5272 5274 5277 5280 5283 5285 5288 5290 5293 5295 5297 5299 5301 5304 5309 5314 5320 5326 5333 5339 5346 5353 5360 5367 5374 5382 5391 5399 5406 5413 5420 5427 5434 5441 5448 5453 5458
5261 5260 5258 5257 5256 5254 5253 5252 5252 5251 5250 5250 5249 5248 5248 5247 5246 5246 5246 5245 5245 5246 5246 5246 5247 5247 5248 5248 5249 5251 5252 5254 5256 5259 5261 5263 5266 5268 5270 5273 5276 5279 5281 5284 5287 5290 5292 5294 5297 5299 5301 5304 5308 5313 5318 5324 5329 5335 5342 5349 5356 5363 5371 5380 5387 5393 5399 5406 5413 5420 5427 5434 5440 5446
5260 5259 5257 5256 5254 5253 5252 5251 5249 5249 5248 5247 5246 5245 5245 5244 5243 5243 5242 5242 5242 5242 5242 5243 5244 5244 5245 5246 5247 5248 5250 5251 5253 5255 5257 5260 5262 5264 5266 5269 5272 5274 5277 5280 5283 5287 5290 5292 5295 5298 5300 5302 5304 5307 5311 5316 5322 5327 5333 5339 5346 5353 5360 5368 5375 5381 5388 5394 5400 5406 5414 5421 5427 5434
5259 5258 5256 5255 5254 5252 5251 5249 5248 5247 5246 5245 5244 5243 5242 5241 5240 5240 5239 5239 5239 5239 5239 5239 5240 5241 5242 5243 5244 5245 5247 5248 5249 5251 5253 5256 5257 5259 5261 5265 5268 5270 5273 5276 5279 5283 5286 5289 5292 5295 5298 5300 5302 5304 5307 5311 5316 5321 5326 5332 5338 5344 5351 5358 5365 5372 5378 5383 5387 5393 5401 5408 5414 5421
5258 5257 5255 5254 5253 5251 5250 5248 5247 5246 5244 5243 5241 5240 5239 5238 5237 5236 5235 5235 5234 5234 5235 5235 5236 5237 5239 5240 5241 5242 5243 5244 5245 5247 5249 5251 5252 5254 5258 5261 5263 5266 5268 5272 5275 5279 5283 5286 5289 5292 5295 5297 5300 5302 5305 5308 5312 5316 5321 5326 5331 5337 5342 5348 5355 5361 5367 5371 5376 5383 5390 5397 5403 5410
5257 5256 5254 5253 5252 5250 5249 5247 5246 5244 5242 5241 5239 5238 5236 5235 5233 5232 5230 5229 5228 5228 5229 5230 5231 5233 5234 5236 5237 5238 5240 5241 5242 5244 5246 5248 5249 5251 5254 5256 5258 5261 5264 5267 5271 5275 5279 5282 5285 5289 5292 5295 5297 5300 5303 5306 5310 5313 5317 5322 5327 5331 5336 5341 5347 5352 5357 5363 5369 5375 5381 5387 5393 5400
5255 5254 5253 5252 5251 5249 5247 5246 5244 5243 5241 5239 5237 5236 5234 5232 5230 5227 5225 5223 5222 5221 5222 5224 5225 5227 5229 5232 5234 5235 5237 5239 5240 5242 5243 5245 5247 5248 5250 5252 5254 5257 5260 5263 5267 5271 5275 5278 5282 5285 5289 5292 5294 5297 5300 5304 5307 5311 5314 5318 5322 5327 5331 5336 5340 5345 5350 5356 5361 5366 5371 5377 5384 5389
5254 5253 5252 5251 5249 5248 5246 5244 5243 5241 5239 5237 5235 5233 5231 5229 5226 5223 5220 5217 5215 5215 5216 5218 5219 5222 5225 5228 5231 5233 5235 5236 5238 5240 5241 5243 5244 5245 5247 5249 5251 5253 5256 5259 5264 5268 5271 5275 5278 5282 5285 5289 5291 5294 5297 5301 5304 5308 5311 5314 5317 5321 5325 5330 5334 5338 5343 5348 5353 5357 5363 5369 5375 5380
5252 5251 5250 5249 5247 5246 5245 5243 5241 5239 5238 5236 5233 5231 5229 5226 5223 5219 5215 5212 5211 5211 5212 5213 5215 5218 5221 5224 5227 5230 5232 5234 5236 5237 5239 5240 5242 5243 5244 5246 5248 5250 5252 5255 5259 5264 5268 5271 5274 5278 5282 5285 5288 5291 5294 5297 5301 5304 5307 5310 5313 5317 5320 5324 5328 5332 5337 5341 5346 5350 5355 5361 5366 5371
5250 5249 5248 5247 5245 5244 5243 5242 5239 5238 5236 5234 5232 5230 5227 5224 5221 5217 5213 5210 5209 5209 5209 5210 5212 5214 5217 5221 5225 5228 5230 5232 5234 5236 5237 5238 5239 5241 5242 5244 5246 5247 5249 5252 5255 5260 5264 5267 5270 5274 5278 5281 5284 5288 5291 5294 5298 5301 5304 5307 5310 5313 5317 5320 5323 5327 5331 5335 5339 5343 5347 5353 5358 5362
5249 5248 5246 5245 5244 5242 5241 5240 5238 5236 5235 5233 5231 5228 5226 5223 5220 5216 5212 5209 5208 5207 5208 5209 5210 5212 5215 5219 5222 5226 5228 5231 5233 5234 5235 5237 5238 5239 5241 5242 5243 5245 5247 5249 5252 5256 5260 5263 5266 5269 5273 5277 5280 5284 5287 5290 5294 5297 5301 5304 5306 5309 5312 5315 5318 5321 5325 5328 5332 5336 5341 5345 5349 5353
5247 5246 5245 5243 5242 5240 5239 5238 5236 5235 5233 5232 5230 5228 5225 5222 5219 5216 5212 5209 5208 5207 5207 5208 5209 5211 5214 5217 5221 5224 5227 5229 5231 5233 5234 5235 5237 5238 5240 5241 5242 5244 5246 5248 5250 5253 5256 5258 5261 5265 5268 5272 5276 5280 5283 5286 5289 5293 5296 5298 5301 5304 5307 5310 5314 5317 5320 5323 5327 5331 5335 5338 5340 5344
5245 5244 5243 5241 5240 5239 5237 5236 5235 5233 5232 5231 5229 5227 5225 5222 5220 5217 5213 5210 5209 5207 5207 5208 5209 5211 5214 5217 5220 5223 5226 5228 5230 5232 5233 5234 5236 5237 5239 5240 5241 5243 5245 5247 5249 5251 5253 5255 5258 5261 5264 5268 5271 5275 5279 5282 5285 5287 5290 5292 5295 5299 5302 5306 5309 5312 5315 5318 5322 5325 5329 5331 5334 5338
5243 5242 5241 5239 5238 5237 5236 5235 5234 5232 5231 5230 5229 5227 5225 5222 5220 5218 5215 5212 5210 5209 5208 5208 5209 5211 5214 5216 5220 5222 5225 5227 5230 5231 5233 5234 5235 5237 5238 5239 5241 5243 5244 5246 5248 5250 5252 5254 5256 5259 5261 5264 5267 5271 5273 5276 5279 5282 5284 5287 5290 5293 5297 5300 5303 5306 5309 5313 5317 5320 5324 5326 5328 5332
5241 5240 5239 5237 5236 5235 5234 5233 5232 5231 5230 5229 5228 5226 5225 5223 5221 5219 5216 5214 5212 5210 5210 5210 5210 5212 5214 5217 5219 5222 5224 5227 5229 5231 5232 5233 5235 5236 5238 5239 5240 5242 5244 5245 5247 5249 5251 5253 5255 5257 5259 5262 5264 5266 5268 5271 5274 5277 5279 5282 5285 5288 5291 5294 5297 5300 5304 5307 5311 5315 5319 5321 5324 5326
5238 5237 5236 5235 5234 5233 5232 5231 5231 5230 5229 5228 5227 5226 5224 5223 5221 5219 5218 5216 5214 5212 5211 5211 5212 5213 5215 5217 5219 5222 5224 5226 5228 5230 5231 5233 5234 5236 5237 5238 5240 5242 5243 5245 5247 5248 5250 5252 5254 5256 5258 5260 5261 5264 5266 5268 5270 5272 5274 5277 5280 5282 5285 5288 5291 5295 5298 5301 5305 5309 5313 5316 5318 5320
5235 5235 5234 5233 5232 5231 5230 5229 5229 5228 5228 5227 5226 5225 5224 5223 5222 5220 5219 5217 5216 5215 5214 5213 5213 5214 5216 5217 5219 5221 5223 5225 5227 5228 5230 5232 5233 5235 5236 5238 5239 5241 5243 5244 5246 5248 5250 5252 5253 5255 5256 5258 5260 5262 5264 5265 5267 5269 5271 5274 5276 5278 5281 5284 5286 5289 5293 5296 5299 5302 5305 5308 5311 5314
5232 5232 5231 5231 5230 5229 5228 5228 5227 5226 5226 5225 5225 5224 5223 5222 5221 5220 5219 5218 5217 5216 5216 5215 5215 5215 5216 5217 5219 5220 5222 5224 5226 5227 5229 5230 5232 5234 5235 5237 5238 5240 5242 5244 5245 5247 5249 5251 5252 5254 5255 5257 5259 5260 5262 5264 5265 5267 5270 5272 5274 5276 5278 5281 5283 5286 5288 5291 5293 5296 5299 5302 5305 5308
5229 5228 5228 5228 5228 5227 5226 5226 5225 5225 5224 5224 5224 5223 5223 5222 5221 5220 5220 5219 5218 5218 5217 5217 5216 5216 5217 5217 5218 5220 5221 5223 5225 5226 5228 5229 5231 5232 5234 5235 5237 5238 5240 5242 5244 5246 5247 5249 5251 5252 5254 5256 5257 5258 5260 5261 5263 5265 5267 5270 5272 5274 5276 5278 5280 5282 5284 5286 5289 5291 5293 5296 5298 5301
5225 5225 5225 5225 5225 5224 5224 5223 5223 5223 5222 5222 5222 5222 5222 5221 5221 5220 5220 5219 5219 5218 5218 5217 5217 5217 5218 5218 5219 5220 5221 5222 5223 5225 5226 5228 5229 5231 5232 5234 5235 5237 5238 5240 5242 5244 5245 5247 5249 5250 5252 5253 5255 5256 5258 5259 5261 5262 5264 5266 5268 5271 5273 5275 5277 5279 5281 5283 5285 5286 5289 5291 5293 5296
5221 5221 5222 5222 5222 5222 5221 5221 5221 5221 5221 5221 5221 5221 5221 5220 5220 5220 5220 5219 5219 5219 5218 5218 5218 5218 5218 5219 5219 5220 5221 5221 5222 5224 5225 5226 5228 5229 5230 5232 5233 5235 5236 5238 5239 5241 5243 5244 5246 5248 5249 5251 5252 5253 5255 5256 5258 5259 5261 5263 5265 5268 5270 5272 5274 5276 5278 5279 5280 5282 5285 5287 5289 5291